This demonstration page uses our WeatherBlox Daily Observations layout. Learn more.

Left ArrowRight Arrow

38.20091, -84.87328

Hourly Observations for July 16, 2019

Temp ( °F °C ) Dew Point ( °F °C ) Humidity (%) Winds ( mph kmh ) Pressure ( in mb ) Visibility ( mi km ) Precip ( " mm )
12:53 am 00:53 Clear 75 23.9 71 21.7 88 88 SSE 6 9 30.05 1018 10 16 0.00 0.00
1:53 am 01:53 Clear 74 23.3 71 21.7 91 91 SSE 5 7 30.04 1017 10 16 0.00 0.00
2:53 am 02:53 Clear 75 23.9 71 21.7 88 88 SE 6 9 30.04 1017 10 16 0.00 0.00
3:53 am 03:53 Clear 74 23.3 71 21.7 91 91 SSE 5 7 30.04 1017 10 16 0.00 0.00
4:53 am 04:53 Partly Cloudy 74 23.3 70 21.1 88 88 SE 5 7 30.04 1017 10 16 0.00 0.00
5:53 am 05:53 Cloudy 74 23.3 69 20.6 85 85 SSE 7 11 30.04 1017 10 16 0.00 0.00
6:53 am 06:53 Cloudy 74 23.3 69 20.6 85 85 SSE 3 6 30.05 1018 10 16 0.00 0.00
7:53 am 07:53 Partly Cloudy 75 23.9 70 21.1 84 84 SE 5 7 30.05 1018 10 16 0.00 0.00
8:53 am 08:53 Mostly Sunny 79 26.1 70 21.1 74 74 S 8 13 30.06 1018 10 16 0.00 0.00
9:53 am 09:53 Sunny 83 28.3 71 21.7 67 67 S 14 22 30.05 1018 10 16 0.00 0.00
10:53 am 10:53 Mostly Sunny 87 30.6 72 22.2 61 61 SSW 12 19 30.04 1017 10 16 0.00 0.00
11:53 am 11:53 Mostly Sunny 87 30.6 70 21.1 57 57 SSW 13 20 30.03 1017 10 16 0.00 0.00
12:53 pm 12:53 Mostly Cloudy 89 31.7 70 21.1 53 53 S 15 24 30.02 1017 10 16 0.00 0.00
1:53 pm 13:53 Partly Cloudy 89 31.7 69 20.6 52 52 SSW 18 30 30.01 1016 10 16 0.00 0.00
2:53 pm 14:53 Partly Cloudy 92 33.3 69 20.6 47 47 SSW 20 31 29.98 1015 10 16 0.00 0.00
3:53 pm 15:53 Mostly Cloudy 90 32.2 68 20 48 48 SSW 17 28 29.97 1015 10 16 0.00 0.00
4:53 pm 16:53 Partly Cloudy 91 32.8 68 20 47 47 SSW 14 22 29.95 1014 10 16 0.00 0.00
5:53 pm 17:53 Sunny 90 32.2 67 19.4 47 47 SSW 18 30 29.93 1014 10 16 0.00 0.00
6:53 pm 18:53 Sunny 89 31.7 68 20 50 50 S 12 19 29.93 1013 10 16 0.00 0.00
7:53 pm 19:53 Sunny 87 30.6 69 20.6 55 55 SSW 10 17 29.93 1014 10 16 0.00 0.00
8:53 pm 20:53 Cloudy with Light Rain 83 28.3 70 21.1 65 65 SSW 13 20 29.93 1014 10 16 0.00 0.00
9:53 pm 21:53 Mostly Cloudy 81 27.2 71 21.7 72 72 SW 10 17 29.95 1014 10 16 0.00 0.00
10:53 pm 22:53 Partly Cloudy 77 25 72 22.2 85 85 SW 9 15 29.97 1015 10 16 0.01 0.25
11:06 pm 23:06 Mostly Cloudy 77 25 72 22.2 85 85 SW 10 17 29.97 1015 10 16 0.00 0.00
11:21 pm 23:21 Mostly Cloudy 77 25 72 22.2 85 85 SW 8 13 29.97 1015 10 16 0.00 0.00
11:53 pm 23:53 Clear 77 25 71 21.7 82 82 SSW 15 24 29.96 1015 10 16 0.00 0.00

Powered by AerisWeather